This is the latest recevied weather packets stored in our database for station/object K9TLD. If no packets are shown the sender has not sent any weather packets the latest 10 day(s).
| Time | Temp. | Humidity | Pressure | Rain* | Wind** | Luminosity | Snow |
|---|---|---|---|---|---|---|---|
| 1778282879 | 14.44° C | 37% | 1006.3 hPa | 0 mm | - | 76 W/m² | - |
| 1778282575 | 14.44° C | 37% | 1006.4 hPa | 0 mm | - | 92 W/m² | - |
| 1778282274 | 14.44° C | 35% | 1006.5 hPa | 0 mm | - | 71 W/m² | - |
| 1778281970 | 14.44° C | 35% | 1006.5 hPa | 0 mm | - | 82 W/m² | - |
| 1778281667 | 14.44° C | 35% | 1006.6 hPa | 0 mm | - | 125 W/m² | - |
| 1778281363 | 15° C | 35% | 1006.5 hPa | 0 mm | - | 140 W/m² | - |
| 1778281061 | 15° C | 35% | 1006.5 hPa | 0 mm | - | 155 W/m² | - |
| 1778280757 | 15° C | 35% | 1006.6 hPa | 0 mm | - | 165 W/m² | - |
| 1778280455 | 15° C | 35% | 1006.7 hPa | 0 mm | - | 163 W/m² | - |
| 1778280152 | 15° C | 35% | 1006.8 hPa | 0 mm | - | 191 W/m² | - |
| 1778279850 | 15° C | 35% | 1006.8 hPa | 0 mm | - | 219 W/m² | - |
| 1778279547 | 15.56° C | 34% | 1006.7 hPa | 0 mm | - | 181 W/m² | - |
| 1778279244 | 15.56° C | 34% | 1006.9 hPa | 0 mm | - | 243 W/m² | - |
| 1778278942 | 15.56° C | 34% | 1006.7 hPa | 0 mm | - | 142 W/m² | - |
| 1778278638 | 15.56° C | 33% | 1006.7 hPa | 0 mm | - | 184 W/m² | - |
| 1778278334 | 15.56° C | 34% | 1006.8 hPa | 0 mm | - | 254 W/m² | - |
| 1778278030 | 15.56° C | 35% | 1006.9 hPa | 0 mm | - | 183 W/m² | - |
| 1778277727 | 15° C | 37% | 1007.1 hPa | 0 mm | - | 170 W/m² | - |
| 1778277423 | 15° C | 36% | 1007.3 hPa | 0 mm | - | 263 W/m² | - |
| 1778277120 | 15.56° C | 38% | 1007.1 hPa | 0 mm | - | 271 W/m² | - |
| 1778276817 | 16.11° C | 34% | 1007.1 hPa | 0 mm | - | 296 W/m² | - |
| 1778276514 | 16.11° C | 35% | 1006.9 hPa | 0 mm | - | 324 W/m² | - |
| 1778276211 | 15.56° C | 38% | 1007.2 hPa | 0 mm | - | 400 W/m² | - |
| 1778275907 | 15° C | 37% | 1007.2 hPa | 0 mm | - | 397 W/m² | - |
| 1778275604 | 15.56° C | 36% | 1007.3 hPa | 0 mm | - | 303 W/m² | - |
* Rain latest hour (hover to see other rain measurements)
** Current wind speed in m/s (hover to see current wind gust speed)